Location: Unspecified
(56.5167°N, 0.0000°E)
Time: 01:37:23
(UTC+02:00)

Cosmos 1674 - Visible Passes

Search period start: 23 May 2018 00:00
Search period end: 02 June 2018 00:00
Orbit: 496 x 521 km, 82.5° (Epoch: 22 May)

Date Brightness Start Highest point End Pass type
(mag) Time Alt. Az. Time Alt. Az. Time Alt. Az.
23 May 3.5 02:58:21 15° SSE 03:01:13 43° E 03:04:47 10° NNE visible
23 May 4.2 04:33:56 10° WSW 04:37:00 24° WNW 04:40:05 10° N visible
24 May 3.8 02:41:21 14° SSE 02:44:07 35° E 02:47:35 10° NNE visible
24 May 4.0 04:16:31 10° SW 04:19:47 28° WNW 04:23:04 10° N visible
25 May 4.1 02:24:21 13° SSE 02:27:02 29° E 02:30:19 10° NNE visible
25 May 3.7 03:59:13 10° SW 04:02:34 33° WNW 04:06:02 10° N visible
26 May 4.3 02:07:19 12° SE 02:09:58 24° E 02:13:02 10° NE visible
26 May 3.5 03:42:11 12° SW 03:45:22 40° WNW 03:48:58 10° N visible
27 May 4.6 01:50:17 11° SE 01:52:54 20° E 01:55:42 10° NE visible
27 May 3.2 03:25:09 14° SSW 03:28:11 49° WNW 03:31:52 10° N visible
28 May 4.8 01:33:24 10° SE 01:35:51 17° E 01:38:19 10° NE visible
28 May 2.9 03:08:06 16° SSW 03:11:00 61° WNW 03:14:46 10° N visible
29 May 5.0 01:16:48 10° ESE 01:18:48 14° E 01:20:49 10° NE visible
29 May 2.7 02:51:02 17° SSW 02:53:51 76° WNW 02:57:38 10° N visible
30 May 5.1 01:00:25 10° ESE 01:01:46 12° E 01:03:07 10° ENE visible
30 May 2.6 02:33:57 18° S 02:36:41 88° ESE 02:40:29 10° NNE visible
30 May 5.0 04:10:48 10° W 04:12:53 14° WNW 04:14:58 10° NNW visible
31 May 2.7 02:16:52 18° S 02:19:33 71° E 02:23:20 10° NNE visible
31 May 4.9 03:53:09 10° W 03:55:37 17° WNW 03:58:06 10° NNW visible
01 Jun 2.9 01:59:46 18° S 02:02:25 57° E 02:06:09 10° NNE visible
01 Jun 4.7 03:35:35 10° WSW 03:38:22 19° WNW 03:41:10 10° NNW visible
